Terminal Aerodrome Forecast
Issued by NWS Albany, NY

Home | Current Version | Previous Version | Text Only | Print | Product List | Glossary On
Versions: 1 2 3 4 5 6 7 8 9 10 11 12 13 14 15 16
928
FTUS41 KALY 010057 AAA
TAFALB
TAF AMD
KALB 010057Z 0101/0124 04004KT P6SM -RA BKN040 OVC050
     FM010200 04005KT 3SM BR VCSH SCT025 OVC040
     FM010400 04005KT 3SM BR VCSH SCT015 OVC025
     FM011400 35009KT 3SM BR VCSH BKN015 OVC025=

USA.gov is the U.S. government's official web portal to all federal, state and local government web resources and services.